Regional Weather Roundup
Issued by NWS

Home | Current Version | Previous Version | Graphics & Text | Print | Product List | Glossary On
Versions: 1 2 3 4 5 6 7 8 9 10 11 12 13 14 15 16 17 18 19 20 21 22 23 24 25 26 27 28 29 30 31 32 33 34 35 36 37 38 39 40 41 42 43 44 45 46 47 48 49 50
000
ASUS43 KLOT 292004
RWRIL

ILLINOIS REGIONAL WEATHER ROUNDUP
NATIONAL WEATHER SERVICE CHICAGO/ROMEOVILLE IL
300 PM CDT MON MAY 29 2017

NOTE: "FAIR" INDICATES FEW OR NO CLOUDS BELOW 12,000 FEET WITH NO
SIGNIFICANT WEATHER AND/OR OBSTRUCTIONS TO VISIBILITY.

* THESE STATIONS ARE NOT UNDER NWS QUALITY CONTROL. THEY ALSO MAY NOT
  REPORT WEATHER SUCH AS PRECIPITATION OR FOG.

ILZ001-002-007-009-015-016-024-292100-
NORTHWEST ILLINOIS

CITY           SKY/WX    TMP DP  RH WIND       PRES   REMARKS
MOLINE         MOSUNNY   74  44  34 W16       29.88F
STERLING*      MOSUNNY   73  47  39 W25G33    29.85F
SAVANNA*       MOSUNNY   72  46  40 W15G22    29.86F
$$

ILZ003-004-008-010-011-017-018-292100-
NORTH CENTRAL ILLINOIS

CITY           SKY/WX    TMP DP  RH WIND       PRES   REMARKS
ROCKFORD       PTSUNNY   71  45  39 W18G29    29.86R
FREEPORT*      PTSUNNY   69  45  41 W17G30    29.87S
ROCHELLE*      MOSUNNY   72  46  39 W25G32    29.87S
DE KALB*       MOSUNNY   72  46  39 W16G31    29.87S
PERU*          SUNNY     74  40  29 W18G36    29.87S
$$

ILZ005-006-012>014-019>023-292100-
NORTHEAST ILLINOIS

CITY           SKY/WX    TMP DP  RH WIND       PRES   REMARKS
CHICAGO-OHARE  MOSUNNY   76  40  27 W24G33    29.82F
CHICAGO-MIDWAY MOSUNNY   77  41  27 W23G32    29.83F
AURORA         SUNNY     77  44  30 W25G32    29.85S
LANSING*       SUNNY     77  52  41 W20G29    29.83F
JOLIET*        MOSUNNY   78  43  28 W14G26    29.85S
WAUKEGAN       MOSUNNY   72  46  39 W13G23    29.81R
DUPAGE AIRPORT SUNNY     75  44  33 W22G33    29.84S
KANKAKEE*      CLOUDY    78  46  32 W16G25    29.86S
WHEELING       SUNNY     75  40  28 W21G31    29.83S
MORRIS*        SUNNY     77  40  26 W23G32    29.84F
ROMEOVILLE*    MOSUNNY   77  49  36 W16G35    29.84F
NORTHERLY ISL    N/A     75  34  22 W10         N/A
$$

LMZ740>746-292100-
SOUTHERN LAKE MICHIGAN

STATION/POSITION SKY/WX   TEMP    WIND        PRES    VSBY  WAVE
                          AIR SEA DIR/SP/G                  HT/PER
                          (F)     (DEG/KT/KT) (MB)    (MI)  (FT/S)
SOUTHERN BUOY              52 48  230/  8/  8 1009.7          1
WILMETTE HARBOR            66 55  260/ 17/ 23   N/A           3/ 3
HARRISON CRIB              74     270/ 22/ 26   N/A
BURNHAM HARBOR             76     230/  6/ 19   N/A
CALUMET HARBOR             77     260/  9/ 19 1009.6F
BURNS HARBOR               69     260/ 16/ 19 1010.5S
MICHIGAN CITY              67     250/ 21/ 22   N/A
MICHIGAN CITY 6N           62 56  270/ 10/ 12   N/A           2/ 3
ST. JOSEPH                 63 60  260/ 10/ 12 1010.4R         1
$$

ILZ025>027-034>036-040-047-049-050-058-095>099-292100-
WEST-CENTRAL ILLINOIS

CITY           SKY/WX    TMP DP  RH WIND       PRES   REMARKS
QUINCY         SUNNY     77  47  34 NW9       29.93S
GALESBURG*     SUNNY     76  43  30 W21G26    29.89S
MACOMB*        SUNNY     78  44  29 W20       29.92F
JACKSONVILLE*  MOSUNNY   80  51  35 NW16G22   29.90S HX  80
PITTSFIELD*    SUNNY     79  53  40 NW9G21    29.92F
$$

ILZ028>032-037-038-041>044-048-051>054-059>061-292100-
CENTRAL ILLINOIS

CITY           SKY/WX    TMP DP  RH WIND       PRES   REMARKS
PONTIAC        PTSUNNY   78  46  31 W18G25    29.87F
BLOOMINGTON    CLOUDY    76  47  35 W12       29.89F
DECATUR        MOSUNNY   81  48  31 W10       29.89F HX  80
PEORIA         PTSUNNY   77  46  33 W13       29.89F
LACON*         MOSUNNY   76  42  29 NW18      29.86F
LINCOLN*       MOSUNNY   80  50  35 W10G21    29.89S
SPRINGFIELD    SUNNY     84  47  27 W18G24    29.89F HX  82
TAYLORVILLE    PTSUNNY   82  45  26 SW15      29.89F HX  80
$$

ILZ033-039-045-046-055>057-062-063-292100-
EAST-CENTRAL ILLINOIS

CITY           SKY/WX    TMP DP  RH WIND       PRES   REMARKS
CHAMPAIGN      MOSUNNY   83  43  24 W21G32    29.88F HX  81
RANTOUL*       PTSUNNY   83  45  26 W18G28    29.88S HX  81
MATTOON        SUNNY     82  49  31 W8G17     29.89F HX  81
PARIS*         PTSUNNY   82  50  33 W15G23    29.90S HX  81
$$

ILZ079-100>102-292100-
SOUTHWEST ILLINOIS

CITY           SKY/WX    TMP DP  RH WIND       PRES   REMARKS
ALTON          PTSUNNY   82  46  28 SW12      29.91F HX  81
BELLEVILLE     SUNNY     84  49  29 SW12      29.92F HX  82
CAHOKIA*       SUNNY     86  43  22 W8        29.90F HX  83
SPARTA*        SUNNY     84  46  26 W7        29.95F HX  81
$$

ILZ064>066-069>071-074>076-080>082-084>086-088>090-092>094-292100-
SOUTH-CENTRAL ILLINOIS

CITY           SKY/WX    TMP DP  RH WIND       PRES   REMARKS
CARBONDALE     SUNNY     85  50  29 W10       29.94F HX  83
CAIRO*         MOSUNNY   83  56  39 SW9       29.95F HX  82
EFFINGHAM*     MOSUNNY   83  52  34 S10       29.93S HX  82
MARION         MOSUNNY   84  54  34 SW12      29.96F HX  83
MT. VERNON       N/A     84  50  30 SW12      29.93F HX  82
CENTRALIA*     SUNNY     84  48  28 W6        29.92F HX  82
SALEM*         SUNNY     85  44  24 SW9       29.92F HX  82
$$

ILZ067-068-072-073-078-083-087-091-292100-
SOUTHEAST ILLINOIS

CITY           SKY/WX    TMP DP  RH WIND       PRES   REMARKS
LAWRENCEVILLE  SUNNY     85  44  23 W15       29.92S HX  82
FLORA*         SUNNY     85  44  23 W12       29.93F HX  83
FAIRFIELD*     SUNNY     83  48  29 SW6       29.92F HX  81
HARRISBURG*    SUNNY     84  57  39 W10G18    29.94F HX  83
ROBINSON*      SUNNY     84  47  27 W10G16    29.92S HX  82
CARMI*         SUNNY     85  50  29 SW15G24   29.93F HX  83
$$

ABBREVIATIONS USED IN REMARKS
   TC - TEMPERATURE IN CELSIUS
  WCI - WIND CHILL INDEX
   HX - HEAT INDEX
  VSB - VISIBILITY
$$





USA.gov is the U.S. government's official web portal to all federal, state and local government web resources and services.